TimeCST,TemperatureF,Dew PointF,Humidity,Sea Level PressureIn,VisibilityMPH,Wind Direction,Wind SpeedMPH,Gust SpeedMPH,PrecipitationIn,Events,Conditions,WindDirDegrees,DateUTC
12:56 AM,28.0,19.9,72,30.22,10.0,Calm,Calm,-,N/A,,Clear,0,2014-01-23 06:56:00
1:56 AM,26.1,21.0,81,30.25,10.0,Calm,Calm,-,N/A,,Clear,0,2014-01-23 07:56:00
2:56 AM,28.0,21.0,75,30.25,10.0,NE,3.5,-,N/A,,Clear,40,2014-01-23 08:56:00
3:56 AM,30.0,19.9,66,30.27,10.0,North,3.5,-,N/A,,Clear,350,2014-01-23 09:56:00
4:56 AM,30.9,17.1,57,30.29,10.0,Calm,Calm,-,N/A,,Clear,0,2014-01-23 10:56:00
5:56 AM,27.0,23.0,85,30.32,10.0,North,4.6,-,N/A,,Clear,360,2014-01-23 11:56:00
6:56 AM,26.1,19.9,78,30.35,10.0,North,4.6,-,N/A,,Clear,350,2014-01-23 12:56:00
7:56 AM,30.9,16.0,54,30.37,10.0,North,4.6,-,N/A,,Clear,360,2014-01-23 13:56:00
8:56 AM,37.9,12.9,36,30.40,10.0,NE,11.5,-,N/A,,Clear,40,2014-01-23 14:56:00
9:56 AM,41.0,12.9,32,30.42,10.0,NE,8.1,-,N/A,,Clear,50,2014-01-23 15:56:00
10:56 AM,43.0,14.0,31,30.41,10.0,Variable,3.5,-,N/A,,Clear,0,2014-01-23 16:56:00
11:56 AM,46.0,14.0,28,30.40,10.0,Variable,4.6,17.3,N/A,,Clear,0,2014-01-23 17:56:00
12:56 PM,48.0,16.0,28,30.37,10.0,North,13.8,18.4,N/A,,Clear,360,2014-01-23 18:56:00
1:56 PM,46.9,15.1,28,30.38,10.0,NNW,5.8,17.3,N/A,,Clear,330,2014-01-23 19:56:00
2:56 PM,48.0,14.0,26,30.38,10.0,NNE,9.2,-,N/A,,Clear,20,2014-01-23 20:56:00
3:56 PM,46.9,15.1,28,30.40,10.0,North,8.1,16.1,N/A,,Clear,360,2014-01-23 21:56:00
4:56 PM,44.1,14.0,30,30.41,10.0,North,9.2,-,N/A,,Clear,10,2014-01-23 22:56:00
5:56 PM,41.0,14.0,33,30.43,10.0,North,4.6,-,N/A,,Partly Cloudy,360,2014-01-23 23:56:00
6:56 PM,39.9,16.0,38,30.45,10.0,North,3.5,-,N/A,,Mostly Cloudy,360,2014-01-24 00:56:00
7:56 PM,39.9,12.9,33,30.46,10.0,North,6.9,-,N/A,,Overcast,360,2014-01-24 01:56:00
8:56 PM,39.0,12.9,34,30.49,10.0,North,13.8,-,N/A,,Overcast,360,2014-01-24 02:56:00
9:56 PM,37.0,10.9,34,30.53,10.0,North,11.5,-,N/A,,Overcast,350,2014-01-24 03:56:00
10:56 PM,35.1,10.0,35,30.55,10.0,North,9.2,-,N/A,,Overcast,10,2014-01-24 04:56:00
11:56 PM,33.1,9.0,37,30.56,10.0,North,15.0,21.9,N/A,,Overcast,360,2014-01-24 05:56:00